When you browse on this site, cookies collect data to enhance your experience and personalize the content and advertising you see.
Visit our Privacy Policy to learn more. By continuing to use the site, you agree to this use of cookies and data.
  • In Hungary
  • List of Countries
  • For 7 days
  • Water Temperature
  • Satellite Maps
  • Weather Map
  • News
  • Weather Widgets
  • user-avatar
    Login

    Hourly Weather Khashuri

    Today, 20 January, Sunday

    Time Temperature Precipitation Wind Pressure Humidity
    00:00 -12°C° 0 mm 2 mps 611 mmHg 62%
    01:00 -12°C° 0 mm 2 mps 611 mmHg 60%
    02:00 -12°C° 0 mm 2 mps 611 mmHg 59%
    03:00 -9°C° 0 mm 2 mps 611 mmHg 53%
    04:00 -10°C° 0 mm 2 mps 611 mmHg 56%
    05:00 -10°C° 0 mm 2 mps 611 mmHg 59%
    06:00 -10°C° 0 mm 2 mps 611 mmHg 61%
    07:00 -10°C° 0 mm 2 mps 611 mmHg 65%
    08:00 -9°C° 0 mm 2 mps 612 mmHg 68%
    09:00 -9°C° 0 mm 2 mps 612 mmHg 71%
    10:00 -6°C° 0 mm 1 mps 613 mmHg 71%
    11:00 -3°C° 0 mm 1 mps 613 mmHg 71%
    12:00 -2°C° 0 mm 1 mps 614 mmHg 71%
    13:00 -1°C° 0 mm 1 mps 614 mmHg 73%
    14:00 -1°C° 0 mm 1 mps 613 mmHg 75%
    15:00 -1°C° 0 mm 1 mps 613 mmHg 77%
    16:00 -3°C° 0 mm 1 mps 613 mmHg 79%
    17:00 -4°C° 0 mm 1 mps 613 mmHg 80%
    18:00 -7°C° 0 mm 1 mps 612 mmHg 81%
    19:00 -8°C° 0 mm 2 mps 612 mmHg 80%
    20:00 -9°C° 0 mm 2 mps 612 mmHg 78%
    21:00 -9°C° 0 mm 2 mps 612 mmHg 76%
    22:00 -10°C° 0 mm 2 mps 612 mmHg 75%
    23:00 -10°C° 0 mm 2 mps 612 mmHg 74%

    Tomorrow, 21 January, Monday

    Time Temperature Precipitation Wind Pressure Humidity
    00:00 -10°C° 0 mm 2 mps 612 mmHg 72%
    01:00 -12°C° 0 mm 2 mps 612 mmHg 71%
    02:00 -12°C° 0 mm 2 mps 612 mmHg 70%
    03:00 -12°C° 0 mm 2 mps 612 mmHg 69%
    04:00 -12°C° 0 mm 2 mps 611 mmHg 68%
    05:00 -13°C° 0 mm 3 mps 611 mmHg 67%
    06:00 -14°C° 0 mm 3 mps 611 mmHg 66%
    07:00 -13°C° 0 mm 3 mps 611 mmHg 67%
    08:00 -12°C° 0 mm 3 mps 611 mmHg 67%
    09:00 -12°C° 0 mm 3 mps 611 mmHg 67%
    10:00 -8°C° 0 mm 2 mps 612 mmHg 67%
    11:00 -6°C° 0 mm 2 mps 612 mmHg 66%
    12:00 -4°C° 0 mm 2 mps 612 mmHg 66%
    13:00 -4°C° 0 mm 2 mps 612 mmHg 67%
    14:00 -4°C° 0 mm 2 mps 611 mmHg 67%
    15:00 -4°C° 0 mm 2 mps 611 mmHg 68%
    16:00 -6°C° 0 mm 2 mps 611 mmHg 68%
    17:00 -8°C° 0 mm 2 mps 610 mmHg 67%
    18:00 -10°C° 0 mm 2 mps 610 mmHg 67%
    19:00 -12°C° 0 mm 3 mps 610 mmHg 66%
    20:00 -12°C° 0 mm 3 mps 609 mmHg 65%
    21:00 -13°C° 0 mm 3 mps 609 mmHg 64%
    22:00 -13°C° 0 mm 3 mps 609 mmHg 64%
    23:00 -13°C° 0 mm 3 mps 609 mmHg 64%

    Day after tomorrow, 22 January, Tuesday

    Time Temperature Precipitation Wind Pressure Humidity
    00:00 -13°C° 0 mm 3 mps 609 mmHg 63%
    01:00 -13°C° 0 mm 3 mps 609 mmHg 64%
    02:00 -12°C° 0 mm 2 mps 609 mmHg 64%
    03:00 -12°C° 0 mm 2 mps 609 mmHg 64%
    04:00 -12°C° 0 mm 2 mps 609 mmHg 64%
    05:00 -12°C° 0 mm 2 mps 609 mmHg 65%
    06:00 -12°C° 0 mm 2 mps 609 mmHg 66%
    07:00 -10°C° 0 mm 2 mps 609 mmHg 68%
    08:00 -9°C° 0 mm 2 mps 609 mmHg 69%
    09:00 -8°C° 0 mm 2 mps 610 mmHg 71%
    10:00 -7°C° 0 mm 2 mps 610 mmHg 71%
    11:00 -3°C° 0 mm 1 mps 610 mmHg 71%
    12:00 -2°C° 0 mm 1 mps 611 mmHg 71%
    13:00 -2°C° 0 mm 1 mps 611 mmHg 73%
    14:00 -2°C° 0 mm 1 mps 610 mmHg 75%
    15:00 -2°C° 0 mm 1 mps 610 mmHg 78%
    16:00 -3°C° 0 mm 1 mps 610 mmHg 80%
    17:00 -4°C° 0 mm 1 mps 610 mmHg 82%
    18:00 -7°C° 0 mm 1 mps 610 mmHg 84%
    19:00 -7°C° 0 mm 1 mps 610 mmHg 83%
    20:00 -9°C° 0 mm 2 mps 610 mmHg 82%
    21:00 -9°C° 0 mm 2 mps 610 mmHg 81%
    22:00 -9°C° 0 mm 2 mps 610 mmHg 80%
    23:00 -10°C° 0 mm 2 mps 610 mmHg 79%

    23 January, Wednesday

    Time Temperature Precipitation Wind Pressure Humidity
    00:00 -10°C° 0 mm 2 mps 610 mmHg 77%
    01:00 -10°C° 0 mm 2 mps 610 mmHg 76%
    02:00 -10°C° 0 mm 2 mps 609 mmHg 75%
    03:00 -12°C° 0 mm 2 mps 609 mmHg 74%
    04:00 -12°C° 0 mm 2 mps 609 mmHg 74%
    05:00 -12°C° 0 mm 2 mps 609 mmHg 74%
    06:00 -12°C° 0 mm 2 mps 609 mmHg 73%
    07:00 -10°C° 0 mm 2 mps 610 mmHg 74%
    08:00 -9°C° 0 mm 2 mps 610 mmHg 74%
    09:00 -9°C° 0 mm 2 mps 611 mmHg 74%
    10:00 -7°C° 0 mm 2 mps 611 mmHg 73%
    11:00 -5°C° 0 mm 2 mps 612 mmHg 73%
    12:00 -4°C° 0 mm 2 mps 612 mmHg 72%
    13:00 -4°C° 0 mm 2 mps 612 mmHg 74%
    14:00 -4°C° 0 mm 2 mps 612 mmHg 75%
    15:00 -1°C° 0 mm 1 mps 611 mmHg 77%
    16:00 -5°C° 0 mm 2 mps 611 mmHg 78%
    17:00 -7°C° 0 mm 2 mps 611 mmHg 79%
    18:00 -9°C° 0 mm 2 mps 611 mmHg 80%
    19:00 -9°C° 0 mm 2 mps 611 mmHg 79%
    20:00 -9°C° 0 mm 2 mps 611 mmHg 79%
    21:00 -12°C° 0 mm 3 mps 611 mmHg 78%
    22:00 -12°C° 0 mm 3 mps 611 mmHg 78%
    23:00 -12°C° 0 mm 3 mps 611 mmHg 78%

    24 January, Thursday

    Time Temperature Precipitation Wind Pressure Humidity
    00:00 -12°C° 0 mm 3 mps 611 mmHg 77%
    01:00 -12°C° 0 mm 3 mps 611 mmHg 77%
    02:00 -12°C° 0 mm 3 mps 611 mmHg 76%
    03:00 -12°C° 0 mm 3 mps 611 mmHg 76%
    04:00 -12°C° 0 mm 3 mps 611 mmHg 75%
    05:00 -12°C° 0 mm 3 mps 611 mmHg 74%
    06:00 -12°C° 0 mm 3 mps 611 mmHg 73%
    07:00 -10°C° 0 mm 3 mps 611 mmHg 73%
    08:00 -10°C° 0 mm 3 mps 612 mmHg 72%
    09:00 -9°C° 0 mm 3 mps 612 mmHg 72%
    10:00 -7°C° 0 mm 3 mps 612 mmHg 71%
    11:00 -5°C° 0 mm 3 mps 612 mmHg 71%
    12:00 -4°C° 0 mm 3 mps 613 mmHg 70%
    13:00 -3°C° 0 mm 2 mps 612 mmHg 71%
    14:00 -3°C° 0 mm 2 mps 612 mmHg 72%
    15:00 -3°C° 0 mm 2 mps 611 mmHg 73%
    16:00 -5°C° 0 mm 3 mps 611 mmHg 74%
    17:00 -7°C° 0 mm 3 mps 611 mmHg 75%
    18:00 -9°C° 0 mm 3 mps 610 mmHg 77%
    19:00 -9°C° 0 mm 3 mps 610 mmHg 77%
    20:00 -9°C° 0 mm 3 mps 611 mmHg 77%
    21:00 -9°C° 0 mm 3 mps 611 mmHg 77%
    22:00 -9°C° 0 mm 3 mps 611 mmHg 77%
    23:00 -9°C° 0 mm 3 mps 611 mmHg 78%

    25 January, Friday

    Time Temperature Precipitation Wind Pressure Humidity
    00:00 -9°C° 0 mm 3 mps 611 mmHg 78%
    01:00 -9°C° 0 mm 3 mps 610 mmHg 79%
    02:00 -9°C° 0 mm 3 mps 610 mmHg 80%
    03:00 -9°C° 0 mm 3 mps 610 mmHg 80%
    04:00 -8°C° 0 mm 3 mps 610 mmHg 81%
    05:00 -8°C° 0 mm 3 mps 610 mmHg 82%
    06:00 -7°C° 0 mm 3 mps 610 mmHg 83%
    07:00 -7°C° 0.1 mm 3 mps 610 mmHg 83%
    08:00 -6°C° 0.1 mm 3 mps 611 mmHg 83%
    09:00 -6°C° 0.1 mm 3 mps 611 mmHg 83%
    10:00 -5°C° 0 mm 3 mps 611 mmHg 82%
    11:00 -4°C° 0 mm 3 mps 611 mmHg 80%
    12:00 -1°C° 0 mm 3 mps 611 mmHg 79%
    13:00 -1°C° 0 mm 3 mps 611 mmHg 79%
    14:00 -1°C° 0 mm 2 mps 610 mmHg 79%
    15:00 -1°C° 0 mm 2 mps 610 mmHg 79%
    16:00 -2°C° 0 mm 2 mps 610 mmHg 80%
    17:00 -3°C° 0 mm 2 mps 609 mmHg 81%
    18:00 -5°C° 0 mm 3 mps 609 mmHg 83%
    19:00 -6°C° 0 mm 3 mps 609 mmHg 83%
    20:00 -6°C° 0 mm 3 mps 609 mmHg 82%
    21:00 -6°C° 0 mm 3 mps 609 mmHg 82%
    22:00 -6°C° 0 mm 3 mps 608 mmHg 81%
    23:00 -6°C° 0 mm 3 mps 608 mmHg 81%
    Show more